sat.trackr.live / text

‹ back to catalog

STARLINK-35253

NORAD 65596 · 2025-207E

PAYLOAD ACTIVE UNKNOWN

§ Identity

Operator
Country
US
Launch date
2025-09-13
Launch site
AFWTR
Launch vehicle
Mass (kg)
RCS (m²)

Purposes: comms

External: N2YO · Heavens-Above · Gunter

§ Orbital elements

Epoch: 2026-09-20T22:00:03.000096Z

Period
93.91 min
Inclination
97.2849°
Eccentricity
0.0001559
Mean motion
15.33442478 rev/d
Perigee alt
464.5 km
Apogee alt
466.6 km
Semi-major
6,843.7 km
B*
-5.4377e-5
RAAN
326.4033°
Arg perigee
84.9852°
Mean anomaly
120.4470°
Rev number
579

§ Raw data

STARLINK-352531 65596U 25207E   26263.91670139 -.00001830  00000+0 -54377-4 0  99952 65596  97.2849 326.4033 0001559  84.9852 120.4470 15.33442478  5799

JSON: /api/v1/satellites/65596 · /tle

For live sub-satellite position, see the globe view (requires WebGL).

§ Visibility from observer

Set your observer location to see the next 7 days of passes ≥ 10°. The values pass through the URL so the page stays shareable.

No JS? Fill the form by hand. The geolocation button needs JavaScript.